Location: Maccacari
(45.1333°N, 11.1333°E)
Time: 02:46:52
(UTC+00:00)

Altair - Pass Details

Date: 28 January 2021
Orbit: 1501 x 1682 km, 47.2° (Epoch: 01 March)

Event Time Altitude Azimuth Distance (km) Brightness Sun altitude
Rises 11:39:56 0° 288° (WNW) 4,935 10.0 26.7°
Reaches altitude 10° 11:45:02 10° 267° (W) 3,928 9.8 26.7°
Maximum altitude 11:49:55 15° 238° (WSW) 3,524 10.1 26.6°
Drops below altitude 10° 11:54:46 10° 208° (SSW) 3,868 11.0 26.5°
Sets 11:59:46 0° 186° (S) 4,814 11.4 26.4°
